Theta_e
313 313 313 313 314 316 319 322 321 320 320 316 316 317 316 317 317 318 318 318 318 318 317 316 316 316 317 318 318 319 318 319 319 318 318 320 320 319 319 318 318 318 318 324 327 329 331 331 331 332 335 338 337 338 338 338 336 333 333 332 332 332 332 330 327 323 318 317 315 315 315 315 316 316 317 317 319 325 328 330 331 331 332 332 332 333 332 330 328 327 327 327 326 326 325 326 326
313 313 313 315 318 322 322 322 321 317 317 314 315 317 315 316 317 318 318 318 318 317 316 317 316 316 317 318 318 318 319 318 319 319 319 319 320 319 319 319 318 318 318 323 326 328 331 331 332 331 334 337 337 337 338 338 336 333 333 333 332 332 331 329 328 322 317 317 315 315 316 317 318 318 318 318 321 326 327 328 329 330 332 333 334 334 333 330 328 327 327 325 323 322 321 321 322
314 314 316 319 321 323 322 321 319 315 314 313 314 317 316 316 317 317 318 317 317 316 316 317 317 317 318 319 319 319 320 319 319 319 319 320 321 319 318 318 318 318 318 322 326 328 330 331 331 331 332 335 336 337 338 337 336 333 333 332 331 332 330 329 328 321 317 316 316 317 318 319 319 319 319 319 321 325 327 327 328 329 331 334 335 335 333 330 328 326 324 322 321 321 320 318 317
317 317 318 320 322 322 323 321 319 316 314 313 314 316 317 317 317 317 317 316 316 316 317 318 318 318 318 319 319 320 320 320 319 319 320 319 319 318 317 318 318 319 318 321 325 327 329 330 331 330 330 332 334 336 336 336 334 332 332 331 331 331 330 330 327 321 317 316 316 318 319 319 319 320 321 322 322 324 326 326 328 330 331 333 335 335 334 331 328 326 325 325 324 323 322 320 318
318 319 318 320 323 322 322 320 319 317 315 315 314 316 317 316 317 317 317 315 316 317 317 317 318 318 318 318 319 320 320 320 319 319 320 319 318 317 316 317 317 319 318 320 323 326 327 329 330 330 330 330 333 334 334 334 332 330 330 329 330 330 329 329 328 320 316 316 317 319 319 319 322 325 325 325 325 324 324 326 328 330 333 334 335 335 335 333 331 330 329 328 326 324 323 321 319
318 319 318 319 321 320 320 318 317 317 316 317 316 316 317 316 316 316 316 316 317 317 316 318 318 318 318 317 317 319 319 319 319 319 319 319 318 316 316 317 317 318 318 319 321 324 326 328 329 329 330 332 334 334 332 333 331 329 329 328 328 329 328 329 328 320 317 317 318 320 321 324 328 329 327 326 328 326 323 326 328 329 332 334 335 335 334 333 332 330 327 324 321 319 318 316 314
319 319 319 320 320 320 321 318 317 318 317 317 317 317 317 317 314 314 317 317 317 317 316 317 317 318 317 316 317 318 318 318 319 319 319 319 318 316 315 316 316 317 318 319 319 322 324 326 328 328 330 331 334 334 332 333 332 329 328 327 327 327 326 329 329 320 318 319 318 322 325 328 329 329 328 327 330 329 326 327 328 330 332 333 334 334 332 329 327 323 318 316 313 310 309 309 308
318 318 319 322 322 322 321 318 319 319 317 315 317 317 317 316 314 315 317 316 316 316 316 317 316 317 316 316 317 318 317 317 317 318 319 319 319 317 316 316 317 316 317 319 319 319 321 324 327 328 329 330 332 333 333 333 333 330 328 327 325 326 326 328 330 322 318 319 320 326 328 328 328 328 328 327 330 331 330 329 329 330 331 332 333 332 329 325 321 317 315 314 309 306 306 306 306
317 317 319 322 321 321 320 319 319 318 317 316 316 317 316 315 314 315 317 316 316 315 316 316 316 316 316 317 317 317 317 316 316 316 317 318 318 316 315 316 317 317 317 318 319 319 319 322 325 326 328 328 330 332 332 333 333 331 328 327 325 326 326 328 331 324 318 320 323 328 329 328 328 328 327 327 329 331 332 331 331 331 330 330 329 327 324 321 320 318 318 316 309 305 305 305 305
317 317 320 322 320 319 317 318 319 318 317 316 316 316 315 314 314 315 316 316 315 315 316 316 316 317 316 317 317 317 316 315 315 315 316 316 316 316 315 316 316 317 317 318 319 320 320 320 323 325 327 327 329 330 332 333 332 331 329 328 326 326 326 328 331 327 322 322 324 327 328 327 328 328 327 327 329 331 333 333 332 330 329 328 326 324 322 323 323 321 322 317 310 304 304 304 304
319 317 318 320 317 316 316 317 318 317 316 316 316 315 314 314 314 315 316 316 315 315 315 315 317 317 317 317 317 316 315 314 315 315 315 315 315 316 315 315 316 316 316 317 318 319 320 320 322 324 325 326 327 328 331 333 332 332 330 329 327 326 327 328 330 330 326 324 325 327 327 327 328 328 327 326 327 330 332 333 333 330 329 327 326 325 324 326 325 324 324 318 310 304 304 304 304
318 318 317 317 316 316 317 317 317 318 317 316 316 314 314 313 314 315 316 316 315 316 316 316 316 317 317 317 316 315 314 314 314 314 314 315 315 315 315 315 315 315 316 316 317 318 319 320 321 323 324 325 326 327 329 331 332 332 331 330 329 328 327 328 330 331 329 326 325 326 326 327 328 329 328 326 327 330 332 333 333 332 330 329 328 328 328 328 326 327 324 316 310 305 303 304 304
318 319 317 316 317 317 316 317 317 318 318 316 316 314 314 313 315 316 315 316 315 316 316 315 315 316 317 316 315 314 315 314 314 314 314 315 315 315 315 315 315 315 316 315 316 316 317 318 320 321 322 324 325 325 326 328 330 330 331 330 330 330 327 327 329 330 330 328 326 326 325 327 327 328 328 326 326 329 331 333 333 333 332 331 331 331 330 329 328 327 321 313 310 304 303 304 303
318 317 317 317 316 317 316 316 316 317 317 316 315 314 314 314 315 314 315 316 315 316 315 314 315 315 316 316 316 315 314 314 314 314 314 314 314 315 315 316 315 315 315 315 316 316 316 317 318 319 320 322 325 326 326 326 327 328 330 330 330 330 328 326 327 329 330 329 327 326 325 326 327 327 328 328 326 326 328 332 333 333 333 333 333 332 331 330 329 327 318 312 309 304 303 303 303
316 315 318 318 316 316 316 317 317 317 317 315 314 314 314 314 314 313 314 316 316 315 315 315 315 315 315 315 316 315 314 314 314 314 314 314 314 315 315 316 316 316 315 315 315 316 316 316 316 317 318 320 324 329 329 328 327 327 329 330 330 330 328 326 325 326 328 329 328 327 325 326 327 328 329 329 328 327 325 329 332 332 332 332 332 331 330 329 328 324 315 311 308 303 303 303 303
314 315 318 317 315 316 316 317 317 317 317 315 314 314 315 315 314 314 314 315 315 315 315 315 314 314 314 314 315 314 314 314 314 314 314 314 314 314 315 315 316 316 316 315 315 316 316 316 316 316 317 317 320 326 330 331 328 327 328 328 329 330 329 328 326 325 326 327 328 328 326 325 327 328 329 328 328 329 327 326 328 329 330 330 331 330 329 328 327 321 314 310 307 303 303 303 303
314 316 317 314 315 316 315 317 317 317 317 316 314 314 316 316 315 315 315 314 315 315 315 315 314 313 313 313 313 313 313 314 314 314 314 314 314 314 315 315 315 316 316 316 315 315 315 316 316 317 317 316 318 320 326 330 330 329 329 328 328 328 329 330 327 325 325 326 326 327 327 327 327 327 329 329 328 329 330 327 326 327 328 328 328 327 327 327 326 322 314 310 308 303 302 302 302
316 317 316 314 315 315 314 316 317 317 316 316 315 314 316 316 315 315 315 315 314 315 315 314 314 313 313 312 312 313 313 313 313 314 313 314 314 314 314 315 315 315 316 316 316 315 315 316 316 316 316 316 317 318 319 324 328 328 328 329 329 329 330 330 329 327 328 328 327 326 326 326 327 327 327 329 329 330 331 331 328 327 326 326 325 325 326 327 326 323 315 310 309 306 302 302 302
316 317 315 315 316 314 314 316 316 316 316 316 315 314 314 315 315 314 315 316 315 315 315 314 314 313 313 312 312 312 312 313 313 313 314 314 314 314 314 314 314 314 315 315 316 316 315 315 315 316 316 316 316 318 318 318 322 325 327 330 330 330 330 331 331 330 330 331 329 327 326 326 327 327 327 328 329 329 329 329 329 327 327 326 326 326 327 326 324 322 317 312 310 308 304 302 302
316 317 316 317 316 314 313 314 316 315 315 316 316 313 314 314 314 314 315 315 315 315 315 314 314 313 312 311 312 312 312 313 314 314 314 314 315 315 314 314 314 314 314 315 315 315 316 315 316 316 315 316 316 317 318 317 319 320 324 329 331 330 330 331 331 330 330 330 331 329 328 327 327 327 326 327 328 328 327 327 329 329 327 326 327 327 325 323 321 320 318 314 312 310 307 304 302
317 316 316 317 314 315 314 314 314 314 314 315 314 313 314 314 312 313 314 314 316 315 312 312 312 311 311 311 311 312 313 313 314 314 315 315 315 316 316 315 315 315 314 314 314 314 315 315 316 316 316 316 316 316 316 317 318 319 323 327 330 330 330 330 329 331 332 330 331 332 331 330 329 328 327 327 328 327 325 325 328 328 327 326 326 325 321 319 321 322 321 318 316 313 310 307 304
317 316 316 316 314 316 316 314 315 314 314 314 313 313 314 313 312 312 313 314 315 313 310 310 310 310 310 311 312 312 313 314 314 314 315 315 315 316 316 316 316 315 315 314 314 314 314 315 315 315 316 316 316 316 316 317 317 320 325 326 326 327 328 329 329 333 335 331 330 330 331 332 331 329 328 328 328 328 327 325 325 325 326 326 325 324 321 320 321 324 325 322 320 316 313 310 307
316 316 315 315 315 316 316 315 315 314 313 313 314 313 312 312 312 312 311 312 311 310 309 309 309 310 311 312 312 313 313 314 314 314 315 315 315 315 315 315 315 315 315 315 314 314 314 314 314 314 315 315 316 316 316 317 317 318 324 326 327 328 328 328 328 332 334 332 331 330 330 331 330 330 328 328 328 329 329 327 325 323 324 327 327 325 323 323 321 322 324 323 321 318 315 312 309
315 316 315 315 314 315 315 314 314 313 312 313 312 312 312 313 313 311 310 309 308 309 309 310 310 310 311 312 312 313 313 313 313 314 314 314 315 314 314 314 314 314 314 315 315 314 315 314 314 314 314 314 315 316 316 317 319 320 322 324 326 327 328 326 326 330 333 333 333 332 331 330 329 329 329 329 329 329 329 328 327 324 325 329 328 326 325 327 325 323 323 323 323 320 317 314 311
315 315 315 314 313 313 314 313 313 312 312 312 311 312 313 312 312 310 308 307 307 309 309 310 311 311 311 312 312 312 312 312 313 313 313 314 314 313 314 314 314 314 314 315 314 314 314 314 314 314 313 313 314 316 316 317 321 322 322 326 327 325 327 329 328 330 331 331 332 332 332 332 330 329 329 328 328 329 329 329 329 326 326 328 328 327 326 326 325 323 322 322 322 321 318 315 313
315 314 314 314 313 313 313 313 313 313 312 312 312 313 312 310 311 310 307 307 308 309 310 310 310 311 311 311 311 311 311 312 312 312 313 313 313 313 313 314 314 314 315 315 315 315 314 314 314 314 313 313 314 315 316 318 322 322 323 330 333 327 327 331 330 328 328 327 329 331 331 333 333 331 329 327 327 328 328 328 328 327 327 329 328 326 325 323 322 321 321 321 321 319 318 316 316
313 313 313 313 313 312 312 313 312 312 312 311 312 313 311 309 311 311 307 307 309 309 310 310 310 310 310 311 311 311 312 312 312 312 312 313 313 313 313 313 314 314 315 315 315 315 315 315 314 314 313 312 315 316 318 322 325 325 324 329 332 328 329 330 328 325 324 325 327 330 330 330 332 333 331 329 328 329 328 328 329 329 328 328 326 324 323 322 321 321 322 322 320 318 318 317 317
312 312 313 313 313 313 312 312 311 311 311 310 311 312 310 310 311 310 307 308 309 309 309 310 310 311 310 310 311 311 312 312 312 312 312 313 312 313 313 313 313 314 314 315 315 316 315 316 315 315 314 313 318 321 322 324 329 329 325 328 327 326 332 332 328 327 325 325 326 328 328 327 330 330 330 330 329 329 329 329 330 329 328 326 325 323 323 322 322 322 322 321 320 319 318 317 316
311 312 314 314 315 314 313 311 310 310 312 310 310 312 312 311 310 308 307 308 309 309 310 310 310 310 310 310 310 311 311 311 312 312 312 312 312 312 312 313 313 313 314 315 316 316 316 316 316 316 315 316 318 322 326 327 329 329 327 332 329 324 329 330 330 331 329 326 323 325 326 326 328 328 329 330 328 328 330 330 329 328 327 326 325 323 323 323 322 322 321 321 320 319 318 317 316
312 312 313 315 317 316 312 311 310 311 311 310 311 315 314 311 310 308 307 307 309 309 310 309 310 310 309 310 310 310 310 311 311 311 312 312 312 312 312 312 313 313 314 315 316 316 317 317 317 318 317 319 319 322 330 331 329 329 327 330 329 326 328 328 328 329 327 325 322 323 324 326 327 327 329 330 328 329 329 329 329 328 327 326 325 323 322 322 322 321 321 321 320 319 319 318 317
313 312 313 315 317 316 313 311 311 313 312 309 311 317 315 311 310 309 308 308 309 310 309 308 309 309 309 309 309 310 310 310 310 311 311 311 312 312 312 313 313 314 315 315 316 317 318 318 319 321 319 320 323 325 329 330 329 328 326 327 327 327 328 326 325 324 323 323 322 322 324 325 327 327 328 329 328 328 328 328 327 327 326 324 323 322 321 321 321 320 320 319 319 318 318 317 317
313 314 316 316 316 316 315 311 311 313 311 310 312 317 316 311 310 309 309 309 308 309 308 308 308 308 308 308 308 309 309 309 310 310 310 311 311 311 312 313 314 315 316 316 318 319 320 319 320 323 322 321 325 326 324 326 327 327 327 327 325 324 324 323 323 323 324 324 324 324 324 325 326 326 327 328 328 327 327 327 326 325 323 322 322 321 321 321 319 319 319 318 318 318 318 317 316
314 315 318 318 316 317 316 311 310 311 311 311 312 315 315 312 310 309 309 309 308 309 308 306 307 307 307 307 307 308 308 309 309 310 310 310 310 311 312 314 315 316 317 318 319 320 321 321 320 322 323 323 326 327 324 324 326 327 327 326 324 324 324 324 324 324 325 325 324 325 324 324 324 325 326 326 327 327 326 325 325 323 322 322 322 321 322 321 320 320 319 319 318 318 318 317 317
316 315 316 317 315 315 316 314 311 310 312 313 312 314 315 312 310 309 308 308 308 309 307 306 306 305 306 306 306 307 308 308 309 309 309 310 310 311 312 313 315 316 318 318 318 319 320 321 321 320 322 324 326 326 325 325 325 325 326 325 325 325 324 324 323 323 323 323 323 323 322 322 323 323 324 324 324 324 324 323 323 322 322 322 321 321 321 320 320 319 318 318 317 317 317 317 316
318 317 316 316 314 314 315 315 312 311 313 314 313 314 315 313 309 308 307 307 308 308 306 305 305 304 305 305 306 306 307 308 308 309 309 309 310 311 312 313 314 315 317 318 318 319 321 321 321 320 321 322 322 323 323 324 323 323 324 324 323 323 323 322 321 321 321 321 321 320 320 320 321 321 322 322 322 323 323 322 322 322 322 321 320 320 320 319 319 318 317 316 316 316 316 315 315
318 317 317 317 316 315 314 314 312 311 313 315 315 315 316 315 311 309 307 306 307 307 305 305 304 304 304 304 305 306 307 308 308 308 308 308 309 310 312 313 314 315 316 317 317 318 319 319 320 321 321 321 321 321 320 321 321 321 321 321 320 320 320 319 318 318 319 319 318 318 318 318 319 319 320 320 321 321 321 321 321 320 320 319 319 319 319 318 317 316 316 315 315 315 314 314 313
315 316 316 316 316 316 315 313 310 310 313 315 314 314 315 315 312 309 307 306 307 307 306 305 304 304 303 303 305 306 306 307 307 307 308 308 309 310 311 312 314 314 314 315 316 317 317 318 319 319 320 319 318 318 319 319 319 319 319 319 318 316 316 317 316 317 316 316 316 315 316 316 316 316 316 317 318 318 318 317 317 317 317 317 317 317 316 316 314 314 314 314 313 313 312 312 311
313 314 315 315 316 316 314 312 310 310 313 314 313 312 315 314 311 308 307 307 307 307 306 305 304 303 303 303 304 305 306 307 307 307 307 308 309 310 310 312 313 314 315 315 315 315 316 317 317 316 317 316 315 315 316 317 317 317 317 316 316 314 314 314 315 314 314 314 313 313 313 313 312 312 312 312 312 312 312 312 312 312 312 312 312 312 312 311 311 311 311 311 310 310 309 308 307
313 314 315 316 316 316 314 311 309 309 312 315 312 313 316 314 308 307 307 307 306 304 304 304 303 303 302 302 304 305 305 305 305 306 307 308 308 309 309 310 311 313 314 315 315 315 315 316 316 316 316 316 314 313 313 313 313 313 313 313 312 311 311 311 311 310 310 309 309 309 308 308 307 307 307 307 307 307 307 308 308 308 308 308 308 307 307 307 307 307 306 306 306 306 306 306 305
313 314 315 316 316 317 317 314 310 309 310 312 313 313 316 313 307 306 305 305 304 302 302 302 301 302 301 302 303 304 304 304 305 306 306 307 307 307 308 308 309 310 311 313 313 313 313 313 313 313 312 312 311 310 309 309 309 308 308 309 309 308 308 307 307 306 306 306 306 306 306 306 305 306 305 305 305 305 305 305 305 305 305 305 305 305 305 305 304 304 304 304 304 304 303 303 303
314 314 315 317 316 316 317 314 311 311 310 310 312 315 317 314 311 309 305 303 303 302 301 301 300 301 301 302 303 304 304 304 305 306 306 306 306 306 306 307 307 307 308 309 309 309 309 309 308 308 307 307 307 307 307 307 307 307 307 307 307 306 306 305 305 305 305 305 305 305 305 305 305 305 305 305 305 304 304 304 304 304 304 304 304 304 303 303 303 303 302 302 302 302 301 301 301
316 315 314 316 316 315 315 314 313 315 316 312 312 317 318 314 312 311 306 304 304 302 302 302 301 300 300 301 302 303 304 305 305 305 305 305 305 306 306 306 306 306 306 306 306 306 306 306 306 306 306 306 306 306 306 306 306 306 306 306 306 305 305 305 305 304 304 304 304 304 304 304 304 304 303 303 303 303 303 302 302 302 302 301 301 300 300 300 299 299 298 298 298 297 298 298 298
318 316 314 313 315 315 314 314 315 317 319 312 309 316 318 315 315 311 307 306 305 303 303 303 302 300 300 300 301 302 303 304 305 305 305 305 305 305 305 305 305 305 305 305 305 305 305 305 305 305 304 304 304 304 304 304 304 304 304 304 305 305 304 304 304 303 303 303 303 302 302 302 301 301 301 300 300 300 299 299 298 298 297 297 297 296 296 296 295 295 294 294 294 294 294 294 294
319 315 313 313 313 314 314 315 316 316 317 313 310 314 316 317 316 310 306 308 306 304 304 304 303 301 300 300 301 302 303 303 304 304 305 305 305 305 305 305 305 305 305 305 304 304 304 304 304 304 303 303 303 303 303 303 303 303 303 303 303 303 303 303 302 302 302 301 301 300 300 299 299 298 298 297 297 296 296 295 295 294 294 294 294 294 293 293 292 292 292 292 292 292 292 292 291
317 310 310 312 312 314 314 315 316 314 315 316 315 314 315 317 315 309 307 309 309 306 305 305 304 302 300 300 301 302 303 303 303 304 304 304 305 305 305 304 304 304 304 304 304 303 303 303 303 303 302 302 302 302 303 303 302 302 302 302 302 302 302 302 301 300 299 299 298 298 297 297 296 296 295 295 294 294 294 293 293 293 293 293 292 292 292 291 291 291 291 291 291 291 291 290 290
312 308 310 310 311 312 313 314 315 313 314 318 317 315 315 317 317 313 310 311 312 310 306 306 305 302 301 301 301 302 302 303 303 304 304 304 304 304 304 304 304 304 303 303 303 303 302 302 302 302 302 302 302 302 302 302 301 301 301 301 301 301 301 300 299 298 297 296 296 295 295 294 294 294 294 293 293 293 293 293 293 292 292 292 292 292 291 291 291 291 290 290 290 290 290 290 289
309 310 312 312 311 311 312 313 313 314 316 317 315 314 315 316 317 316 314 313 312 311 308 306 305 303 302 301 301 302 302 303 303 303 303 304 304 304 304 304 303 303 303 303 302 302 302 302 302 302 301 301 301 301 301 301 300 300 300 300 300 300 299 298 297 295 294 294 294 293 293 293 293 293 293 293 293 293 292 292 292 292 292 291 291 291 291 291 290 290 290 289 289 289 289 289 289
310 314 314 315 314 312 313 313 313 317 318 314 309 309 313 316 317 315 314 311 309 310 309 307 305 304 302 301 301 301 302 302 303 303 303 303 303 303 303 303 303 303 302 302 302 302 302 301 301 301 301 301 301 300 300 300 299 299 299 298 298 297 296 295 294 293 293 293 293 293 293 293 293 292 293 293 292 292 292 291 291 291 291 291 290 290 290 290 289 289 289 289 289 289 288 288 288
311 314 314 318 317 314 316 316 314 316 316 310 306 309 312 315 316 314 313 310 308 309 309 307 306 304 303 301 301 301 302 302 302 303 303 302 303 302 302 302 302 302 302 301 301 301 301 301 300 301 301 300 300 299 299 298 298 297 297 296 295 294 293 293 293 293 293 293 292 292 292 292 292 292 292 292 292 292 291 291 291 290 290 290 289 289 289 289 289 289 288 288 288 288 288 288 288
312 315 316 319 318 316 318 316 313 315 313 307 305 309 312 314 314 313 311 308 306 305 305 306 306 305 303 302 302 302 302 302 302 302 302 302 302 302 302 302 302 301 301 301 301 300 300 300 300 300 300 299 298 298 297 297 296 295 295 294 294 293 293 293 293 293 293 292 292 292 292 292 292 292 292 292 291 291 291 290 290 290 289 289 289 289 289 288 288 288 288 288 288 288 287 287 287
313 314 315 317 317 318 319 317 316 316 313 307 306 310 314 315 311 307 305 303 301 302 302 302 304 304 303 302 302 302 302 302 302 302 302 302 302 302 301 301 301 301 301 300 300 300 300 299 299 299 299 298 297 296 296 295 295 294 293 293 293 292 293 293 293 293 293 292 292 292 292 292 292 292 291 291 291 291 290 290 289 289 289 289 289 288 288 288 288 288 288 287 287 287 287 287 287
312 311 313 315 315 316 314 312 312 312 312 310 309 311 313 312 307 300 301 302 301 301 301 301 303 303 302 302 301 302 302 302 302 302 302 302 302 301 301 301 301 300 300 300 300 299 299 299 298 298 298 297 296 295 295 294 294 293 293 292 292 293 293 293 293 292 292 292 292 291 291 291 291 291 290 290 290 290 289 289 289 289 289 288 288 288 288 288 288 288 287 287 287 287 287 287 287
312 311 313 313 312 313 312 309 307 308 314 315 311 312 311 310 308 303 301 303 302 302 302 302 302 302 302 302 301 301 302 302 302 302 302 302 301 301 301 301 301 300 300 300 299 299 298 298 298 297 297 296 295 294 294 293 293 293 292 293 293 292 292 292 292 292 291 291 291 290 290 290 290 290 289 289 289 289 289 289 289 288 288 288 288 288 288 288 288 287 287 287 287 287 287 287 287
312 313 314 312 311 312 313 314 312 311 316 315 312 314 313 312 312 306 303 305 305 303 302 302 302 302 301 301 301 302 302 302 302 302 302 302 301 301 301 300 300 300 300 299 299 298 298 297 297 296 296 296 295 294 293 292 292 292 292 292 292 292 292 291 291 291 290 290 290 290 289 289 289 289 289 289 289 288 288 288 288 288 288 288 288 288 288 287 287 287 287 287 287 287 287 287 287
310 312 312 313 315 315 313 315 316 315 317 315 312 311 312 313 314 309 307 309 307 304 302 302 302 302 302 302 301 302 302 302 302 302 302 301 301 301 300 300 300 300 299 299 298 297 297 296 295 295 295 294 294 293 292 292 292 292 292 292 292 291 291 291 291 291 290 290 290 289 289 289 289 289 288 288 288 288 288 288 288 288 288 287 287 287 287 287 287 287 287 287 287 287 287 286 286
307 309 310 311 313 315 314 314 315 316 317 315 313 312 312 313 313 311 311 310 309 306 302 302 303 303 302 302 302 302 302 302 302 302 302 301 301 301 300 300 300 299 298 298 297 297 296 295 294 294 293 293 293 292 292 292 292 292 292 291 291 291 291 291 291 290 290 290 289 289 289 289 288 288 288 288 288 288 288 288 288 287 287 287 287 287 287 287 287 287 287 287 286 286 286 286 286
309 311 311 311 310 311 312 312 312 313 316 316 315 315 314 312 311 312 312 311 310 308 305 305 305 304 303 303 303 303 303 303 303 302 302 301 301 300 300 299 299 298 298 297 296 296 295 294 293 293 293 292 292 292 291 291 291 291 291 291 291 291 291 291 291 290 290 289 289 289 288 288 288 288 288 288 288 288 288 288 287 287 287 287 287 287 287 287 287 286 286 286 286 286 285 285 285
312 312 312 313 312 311 314 314 311 310 313 314 313 315 315 310 307 309 310 309 308 308 308 307 305 304 304 304 303 303 303 303 303 302 302 301 301 300 299 299 298 298 297 296 296 295 294 294 293 292 292 292 291 291 291 291 291 291 291 291 291 291 291 290 290 290 289 289 289 288 288 288 288 288 288 288 288 288 288 287 287 287 287 287 287 287 287 286 286 286 286 285 285 285 285 285 285
Wind_Speed
4 3 2 2 1 1 1 1 1 2 0 4 3 1 3 1 2 1 2 2 1 1 1 2 2 4 2 3 4 5 4 3 4 4 3 4 6 5 5 3 2 2 3 10 13 15 16 16 16 16 15 14 14 13 11 10 9 7 5 4 4 3 3 2 1 3 5 6 6 7 7 7 7 7 7 7 6 6 5 4 4 3 3 3 4 4 5 5 5 6 6 7 7 7 7 7 6
3 2 1 1 1 1 1 2 1 3 2 4 2 1 3 1 1 1 3 3 3 2 2 2 3 6 5 5 5 4 2 2 3 4 3 4 5 5 6 3 2 2 4 10 12 14 16 16 16 15 14 14 13 12 11 11 10 8 6 5 4 3 3 2 1 3 5 5 6 6 7 7 7 7 7 6 6 6 5 4 3 3 3 3 4 5 5 4 5 5 6 6 7 7 7 6 5
4 3 2 2 2 1 2 2 1 3 3 4 3 2 1 1 2 4 4 3 2 3 2 1 3 4 5 4 2 2 3 2 3 3 3 5 5 6 7 4 2 2 3 9 12 14 15 16 16 15 14 13 12 12 11 10 9 8 7 6 4 4 4 2 1 3 5 5 5 6 6 6 7 6 5 5 5 5 4 4 3 3 2 3 4 6 7 5 5 5 5 6 6 7 7 6 6
5 4 2 1 1 1 1 1 1 2 2 3 4 3 1 1 4 4 4 4 3 1 0 1 2 1 3 1 1 1 4 5 5 5 3 6 6 6 7 4 3 3 3 7 10 12 15 16 15 14 13 12 12 11 10 10 9 8 7 6 5 5 4 3 2 4 5 4 5 6 6 5 6 6 5 3 3 3 4 4 3 3 3 2 3 5 6 4 3 3 4 5 7 8 9 10 9
6 5 3 2 2 1 0 1 1 1 2 2 3 4 1 1 3 3 5 5 2 2 1 3 1 0 2 3 2 2 5 4 6 6 3 6 6 6 5 5 4 4 3 6 9 11 13 15 15 15 13 12 11 11 10 10 9 8 7 6 5 6 5 4 4 6 6 4 5 5 5 5 5 4 4 3 2 2 3 4 3 4 3 2 2 4 5 3 2 3 5 7 9 11 12 13 13
7 6 5 3 2 1 1 2 1 2 3 2 4 5 2 2 2 4 4 4 5 3 3 3 2 2 1 2 3 4 7 4 5 6 4 5 5 5 4 4 5 5 4 5 8 10 11 13 15 15 14 13 12 11 10 10 9 9 7 6 6 6 5 4 5 6 6 5 5 5 4 4 3 3 3 3 2 1 3 4 3 4 4 2 1 2 3 2 2 4 7 9 11 13 14 15 14
6 5 3 4 3 1 2 1 2 4 3 3 3 4 3 3 3 4 1 2 3 4 4 3 4 3 1 3 3 5 7 6 7 6 5 3 3 4 3 4 4 5 4 4 6 9 10 12 14 14 14 14 13 12 11 10 10 9 8 7 6 6 5 4 5 7 7 6 5 5 3 3 2 2 2 2 2 1 2 4 4 4 4 3 1 0 2 4 5 7 8 10 12 12 12 12 11
5 3 1 0 1 1 0 2 2 2 2 1 2 2 3 4 3 2 2 2 2 3 4 3 4 2 3 5 3 6 8 9 10 9 7 2 1 2 2 3 4 5 4 4 5 7 8 11 12 13 14 14 14 12 11 11 10 9 8 7 7 7 6 5 5 7 7 6 6 5 3 2 2 2 2 2 0 1 2 5 5 4 4 2 2 2 3 6 8 9 10 11 12 10 9 8 7
5 3 1 0 1 1 1 2 2 2 2 1 2 2 3 3 1 2 1 2 2 2 3 2 3 3 4 3 4 7 10 11 12 12 10 6 2 1 1 2 3 4 4 4 4 5 7 10 12 13 14 14 13 12 11 10 10 10 8 7 7 7 6 6 5 7 7 6 6 5 4 3 2 1 1 1 2 2 3 5 5 4 3 2 3 4 4 6 8 10 11 13 12 10 8 6 5
5 4 2 1 1 2 2 2 2 2 2 1 2 2 3 2 0 1 2 2 3 2 2 1 1 4 3 2 5 7 10 11 10 10 10 8 5 2 1 2 3 3 4 4 5 5 6 8 10 12 13 14 13 12 11 10 10 9 9 8 7 7 6 6 5 5 6 6 6 6 4 3 2 1 0 1 3 3 3 5 5 4 3 3 4 5 5 7 8 10 12 14 13 9 7 5 3
2 4 2 1 1 2 2 3 2 2 2 1 1 2 1 1 2 1 2 1 3 2 2 1 1 4 3 3 5 6 8 10 9 8 7 7 6 4 1 2 3 4 4 5 5 5 6 7 9 11 12 13 14 13 12 11 11 10 9 8 8 8 7 6 6 6 5 6 7 6 5 3 3 2 2 2 4 4 4 6 5 5 4 5 5 6 7 8 9 11 13 15 13 8 6 3 2
0 1 1 2 1 1 0 2 3 3 3 3 4 3 2 0 2 1 1 2 3 1 3 3 1 3 2 3 4 5 4 11 11 10 7 5 4 3 2 2 3 3 4 4 4 4 6 7 9 10 11 13 13 14 13 13 12 11 10 9 8 8 8 7 7 7 6 6 7 7 6 5 4 4 3 2 4 5 5 7 6 5 6 6 6 7 9 10 11 12 14 15 12 7 4 2 1
2 0 1 1 1 0 1 1 2 2 3 4 4 4 3 1 1 2 2 1 2 1 3 4 2 2 2 0 3 1 6 10 11 11 7 5 3 2 2 3 4 4 3 4 3 3 4 6 8 10 11 12 13 13 14 15 14 12 11 10 10 9 9 8 8 8 7 7 7 8 8 7 5 5 5 4 5 6 6 7 6 6 6 6 7 8 10 11 12 13 14 14 11 6 3 1 1
3 1 1 1 0 1 1 1 2 3 4 5 3 4 2 1 1 1 0 0 1 3 6 5 3 1 2 1 2 2 9 10 12 11 7 5 3 3 4 6 6 6 5 5 4 3 3 5 7 9 10 11 12 13 14 15 15 14 13 12 11 11 10 9 9 9 8 7 7 8 8 7 6 6 6 6 6 7 7 8 7 7 6 7 8 9 11 11 12 13 14 13 10 6 3 1 1
4 3 2 2 2 2 2 0 2 4 4 6 3 3 1 1 3 1 0 2 1 5 7 5 4 3 2 2 2 6 11 12 13 11 7 5 4 4 4 6 8 8 8 7 7 5 4 4 6 8 9 10 12 13 13 14 15 15 15 14 13 12 12 10 10 9 8 9 8 8 8 7 7 8 7 6 7 7 8 9 9 9 8 9 10 11 11 11 12 12 13 12 8 5 2 1 0
4 3 1 2 2 1 2 1 1 3 4 5 3 4 1 1 4 1 2 4 4 5 6 5 5 4 3 4 5 9 13 14 12 9 7 6 6 6 5 5 7 8 9 9 9 8 7 6 5 6 7 9 11 12 13 13 14 15 16 16 15 14 13 12 11 10 9 9 10 9 9 9 9 9 8 7 8 9 9 10 11 10 11 12 12 13 13 12 12 13 12 10 7 4 2 2 1
3 1 1 1 1 1 3 4 3 2 4 5 3 3 1 1 2 4 6 5 5 7 7 6 5 5 5 5 8 11 14 14 10 7 6 6 7 7 7 6 6 7 8 9 10 10 10 8 7 6 6 7 9 11 12 13 13 15 15 15 16 15 15 14 12 12 10 9 10 10 10 9 10 10 10 9 8 10 11 11 12 11 12 14 15 15 14 13 12 13 12 9 6 4 3 3 3
2 0 1 0 1 1 2 4 3 2 4 4 2 3 2 1 2 6 7 3 5 8 5 3 2 2 3 6 11 13 12 10 7 6 5 5 7 8 8 8 7 7 8 9 11 11 12 11 9 8 7 7 7 9 10 11 13 14 12 12 14 14 15 14 12 12 10 10 9 10 11 11 11 11 11 11 9 9 11 11 11 12 13 14 14 14 13 14 14 14 13 8 5 5 3 4 4
2 0 1 0 1 1 1 2 3 2 2 2 1 2 1 2 2 4 4 4 7 7 2 3 3 2 4 10 11 9 6 4 4 2 1 1 4 5 6 7 8 8 9 9 10 11 12 11 11 10 9 8 8 8 8 9 10 11 11 12 13 14 14 13 12 12 12 12 11 10 11 11 12 12 12 12 11 10 12 14 14 13 13 12 12 12 12 14 16 15 13 8 5 4 4 4 5
1 1 1 1 1 0 3 3 2 2 1 1 0 1 2 1 1 2 3 6 7 4 4 2 2 2 9 10 5 3 3 3 3 3 3 3 3 2 1 3 4 6 8 9 10 11 12 12 12 12 11 11 10 9 9 8 8 9 10 12 13 13 14 13 13 12 13 13 12 11 11 11 12 12 13 13 13 13 14 15 14 14 13 12 12 12 13 15 16 16 13 9 7 5 4 4 5
1 1 1 3 2 1 3 4 3 3 2 1 1 2 3 1 1 2 2 5 4 2 4 3 5 8 10 6 1 1 2 2 2 2 3 3 2 2 1 2 2 4 5 8 10 11 12 13 14 14 14 13 13 12 11 9 7 7 8 10 12 14 14 13 15 14 13 14 13 13 12 12 12 12 13 13 13 13 14 15 16 15 13 12 13 12 12 14 15 16 13 11 12 10 7 5 5
2 1 2 3 3 1 2 3 3 2 3 2 3 2 2 2 2 3 4 4 2 4 6 6 7 7 5 2 0 1 0 1 1 1 1 1 2 3 3 4 4 4 5 7 9 10 12 13 14 15 16 16 15 15 13 11 9 7 6 8 10 12 13 13 15 14 13 12 12 12 13 13 13 12 13 13 14 13 13 14 15 16 14 13 13 11 11 12 13 14 14 14 15 15 12 8 6
1 1 1 2 3 3 2 2 3 3 3 3 3 3 3 4 2 3 3 3 3 6 7 4 4 3 2 1 1 1 2 2 1 2 2 3 5 5 5 5 6 6 6 7 8 10 12 13 14 15 16 17 17 16 15 13 11 8 8 8 8 10 11 11 14 15 13 12 13 13 13 13 13 13 13 12 13 13 13 12 11 12 13 12 12 10 11 12 13 14 16 18 19 19 17 13 9
2 0 2 2 4 5 4 5 7 7 7 6 6 6 5 4 2 3 3 2 4 4 1 1 2 2 2 2 2 2 2 2 2 3 5 7 8 9 9 9 9 8 7 8 8 9 10 12 14 15 16 17 18 17 16 14 11 9 9 8 9 10 9 9 13 15 15 13 12 13 13 14 14 13 13 13 12 13 13 13 11 10 9 10 12 11 11 11 10 13 17 19 21 21 20 18 13
3 1 1 2 4 5 7 9 12 12 13 11 8 6 4 3 2 3 2 1 4 3 3 3 3 3 3 3 2 1 1 1 1 2 3 6 8 9 9 9 9 8 7 6 6 7 7 9 11 13 16 18 18 17 16 14 11 10 10 9 8 10 10 8 10 13 13 12 10 12 14 15 16 14 12 12 13 11 11 12 13 12 11 10 11 11 11 10 9 11 13 14 18 20 20 19 16
2 1 0 3 5 7 10 11 12 12 11 9 6 4 2 2 5 5 3 3 5 5 5 4 4 4 3 2 1 2 4 3 3 4 4 5 5 6 6 6 6 5 5 4 4 4 4 6 8 11 14 17 16 16 15 13 10 7 10 10 8 10 11 9 9 12 14 16 16 14 13 13 16 16 11 9 10 9 9 10 13 14 12 11 10 10 11 9 8 8 9 10 14 16 16 16 15
2 0 3 6 8 9 10 10 10 10 10 8 7 4 2 5 5 2 1 5 6 5 5 5 4 3 1 1 2 4 4 4 5 5 5 4 3 4 4 5 6 6 6 5 4 3 2 2 5 7 10 13 13 13 14 12 10 7 11 13 13 13 13 12 13 14 15 19 19 16 13 10 12 15 13 10 10 10 11 11 12 12 9 9 9 9 9 7 6 7 7 9 12 14 14 14 14
2 1 5 7 7 9 8 8 7 6 5 4 5 3 3 4 3 2 2 6 7 5 5 4 3 2 0 1 2 3 4 4 5 5 4 4 4 4 5 6 7 7 8 8 7 6 5 3 1 3 6 10 12 13 14 14 13 12 13 14 15 15 12 13 14 12 13 17 17 15 13 10 9 11 11 11 11 11 13 14 12 10 10 10 8 7 8 8 8 8 8 9 11 13 15 16 16
1 1 5 6 6 6 2 1 1 1 1 2 4 4 4 4 3 3 2 6 6 4 4 3 3 3 2 1 1 2 3 3 4 4 4 5 5 5 6 7 8 8 9 8 8 7 6 4 3 4 7 11 14 16 15 14 15 14 14 13 14 15 12 12 12 9 10 12 14 14 14 12 10 10 8 9 10 9 11 12 11 11 12 9 6 6 8 8 9 10 11 10 11 13 15 17 18
2 1 3 6 6 3 2 1 1 1 2 4 3 2 3 6 4 1 3 7 6 3 3 3 3 3 2 1 1 1 2 2 2 3 4 5 5 6 6 7 7 8 8 8 7 6 7 6 7 7 9 12 14 17 18 16 16 15 15 14 12 12 11 10 11 10 9 10 12 13 12 12 11 11 9 9 9 8 8 8 9 10 8 5 4 5 7 7 10 11 11 12 12 14 15 17 18
2 1 1 3 4 1 4 1 3 2 1 4 5 5 1 7 4 1 4 8 8 4 3 4 4 3 2 2 1 1 1 1 2 3 4 4 5 5 6 7 7 7 7 7 6 7 7 8 10 11 11 14 16 17 18 18 17 16 14 13 12 10 8 9 10 8 7 7 8 9 10 9 9 10 9 9 10 9 8 8 7 7 4 2 4 6 7 8 9 10 11 12 12 14 15 17 18
0 3 3 2 2 2 3 2 2 2 1 2 5 4 1 6 4 1 3 8 8 5 4 5 4 4 3 2 1 1 2 2 3 3 3 4 4 4 5 6 7 7 6 7 7 8 8 9 13 14 13 15 17 16 17 18 16 15 13 11 12 10 7 7 7 4 1 1 2 4 5 6 6 8 7 5 7 8 8 7 6 6 4 4 6 7 8 9 10 11 12 12 13 14 16 18 19
2 3 5 2 3 4 0 3 2 2 0 1 3 3 0 5 4 1 4 7 8 6 5 5 5 4 3 3 3 3 3 4 3 3 3 4 3 3 4 6 7 7 7 7 8 8 8 9 11 14 15 16 17 15 15 15 14 13 12 10 10 8 6 6 6 4 2 2 2 2 2 1 2 4 5 5 5 6 6 6 6 6 5 5 7 7 8 9 10 11 12 13 13 15 16 17 18
3 3 4 3 3 4 2 2 2 2 2 2 1 4 3 5 6 1 5 8 6 5 5 5 4 4 3 3 4 4 4 4 4 4 3 3 3 3 4 6 7 8 9 9 9 10 11 11 11 13 15 15 15 15 13 13 13 13 12 11 9 8 7 5 6 5 4 3 2 2 2 2 1 1 3 4 4 4 4 4 5 5 5 5 6 6 7 8 8 9 11 12 13 14 16 17 18
3 4 4 3 4 6 5 2 1 1 3 3 2 6 7 5 8 3 4 7 5 4 5 4 3 3 3 4 4 5 5 5 4 4 3 3 3 3 4 6 8 9 11 12 12 13 14 13 12 13 14 13 12 12 11 11 12 11 10 10 9 8 8 6 5 5 4 4 4 2 1 1 1 1 1 2 1 2 3 4 4 6 6 6 7 7 8 8 9 11 12 12 14 15 17 19 20
2 3 3 4 5 6 4 1 1 1 4 7 7 9 11 6 7 6 5 5 4 4 4 4 3 3 3 4 5 6 5 5 5 3 3 3 3 3 4 6 9 10 11 12 12 13 14 15 15 15 16 14 11 9 9 9 9 9 9 9 9 8 8 6 5 5 4 3 3 2 3 3 2 2 2 3 3 4 5 5 6 8 9 10 10 11 12 12 13 13 13 13 14 16 19 20 20
1 2 3 5 7 6 2 3 2 1 3 7 7 8 12 8 4 6 5 5 5 5 5 4 4 4 4 5 6 7 6 6 5 4 4 4 4 5 5 6 9 10 10 11 12 13 14 15 15 16 16 13 11 10 10 9 9 9 9 9 9 8 7 6 6 5 4 3 2 2 2 2 2 2 3 4 5 6 7 7 8 9 10 11 11 12 12 13 13 13 14 14 15 16 17 18 18
3 4 5 5 7 7 2 2 2 2 4 4 2 5 11 6 4 5 5 5 5 4 4 4 4 4 4 6 7 7 7 7 6 5 6 6 7 7 7 7 9 10 10 12 13 14 15 14 14 14 13 11 10 10 10 9 9 8 8 8 8 8 8 6 7 6 5 4 4 4 4 4 3 2 2 1 1 2 3 4 5 5 6 7 8 9 10 11 12 12 13 13 13 14 14 16 16
4 4 5 5 5 4 2 2 2 2 4 2 2 5 9 2 5 4 4 4 3 2 3 4 4 4 4 6 8 8 8 8 8 8 8 9 9 10 10 10 10 11 12 13 14 14 15 14 13 13 12 10 10 10 10 10 10 9 9 10 10 11 11 10 10 10 9 7 7 7 7 7 7 6 6 5 4 4 3 3 3 3 4 5 6 7 8 9 9 9 9 9 10 11 12 14 14
6 5 5 6 3 2 4 2 3 2 2 2 1 6 8 3 4 3 3 2 2 2 2 3 4 4 6 8 9 10 10 10 11 11 12 12 13 13 13 14 14 14 15 15 15 15 15 15 15 14 14 14 14 14 14 15 15 15 15 15 14 14 14 13 12 12 11 9 9 10 10 10 9 8 8 8 7 6 6 5 5 4 4 4 4 4 5 6 6 7 8 9 9 10 11 13 14
7 7 8 9 5 6 6 1 2 2 2 2 3 6 6 4 4 3 4 3 3 3 3 4 5 7 8 10 11 12 13 14 14 15 15 16 16 17 17 18 18 18 18 18 18 17 18 18 18 18 18 18 18 18 17 17 16 16 15 14 14 14 14 13 12 12 11 10 10 10 11 11 10 10 9 9 9 9 9 8 8 8 7 7 6 7 7 8 9 10 10 11 11 12 13 14 15
6 8 12 13 10 7 5 2 2 4 3 3 2 5 3 3 4 4 4 4 4 4 5 6 6 7 9 9 11 13 15 16 17 18 19 19 20 20 20 20 21 20 20 20 20 20 20 20 20 20 20 20 19 18 17 16 14 14 13 12 12 11 12 12 11 11 11 10 10 10 10 10 10 9 9 9 9 10 10 10 10 10 10 10 10 10 10 10 11 12 12 13 13 14 14 14 15
4 4 9 12 10 5 5 6 5 4 2 1 1 5 3 2 3 5 5 5 5 4 5 7 7 8 9 10 13 15 16 18 19 20 21 21 22 22 22 22 22 22 22 22 21 21 20 20 19 19 19 19 18 18 16 14 12 12 11 10 10 9 9 10 11 10 11 10 10 10 9 9 9 9 9 9 9 10 10 10 11 11 11 11 11 11 11 12 13 13 14 14 14 14 14 14 15
2 1 1 6 7 7 8 8 6 3 2 1 1 2 4 5 2 4 5 5 5 6 7 8 10 10 10 12 15 18 19 20 21 22 22 23 23 23 23 23 22 22 21 21 20 20 19 18 18 17 17 17 16 16 14 12 10 10 9 8 8 8 8 10 10 10 10 10 9 9 9 9 9 9 9 9 10 10 10 11 12 12 12 12 13 13 13 14 14 14 14 14 14 15 15 15 16
1 2 2 4 4 5 6 6 5 1 1 4 5 3 3 5 2 3 3 4 6 8 9 11 13 13 12 15 18 19 20 21 22 23 23 23 23 23 23 22 21 21 20 19 18 18 17 16 16 15 15 15 15 14 13 11 9 8 7 5 5 7 8 9 10 10 10 9 8 9 9 9 9 9 9 9 9 10 11 11 12 12 12 13 13 14 14 14 14 14 15 15 16 16 16 16 16
3 5 6 7 5 4 3 3 3 2 3 7 6 7 5 5 3 4 3 4 7 8 9 11 14 14 15 18 20 21 21 22 23 24 24 24 23 23 22 21 21 20 19 18 17 16 15 15 14 13 13 14 14 13 11 10 8 6 5 5 5 7 9 10 10 10 10 9 8 9 9 9 9 8 9 9 9 9 10 11 11 12 12 13 13 13 13 14 14 15 15 16 16 15 16 16 16
9 8 6 7 5 4 2 1 1 2 5 4 2 5 5 4 3 6 4 1 2 6 8 10 12 15 17 19 21 22 23 24 24 25 24 24 23 23 22 21 20 19 18 17 16 15 14 14 13 12 12 13 12 11 9 8 7 6 6 6 6 8 9 10 11 10 10 9 8 8 8 8 8 8 8 8 9 9 10 11 11 12 12 12 13 13 13 14 14 15 15 15 15 16 16 15 15
6 4 5 5 3 3 2 2 2 5 5 1 2 1 5 6 3 3 3 1 2 5 8 11 15 17 18 19 22 24 24 25 26 26 25 24 23 23 22 21 20 19 18 17 16 15 13 13 11 10 11 12 11 10 9 8 8 7 7 8 8 10 10 10 10 10 9 8 7 7 7 7 7 7 8 8 9 10 10 11 12 12 12 12 13 13 13 13 13 14 14 14 15 15 15 15 15
3 4 7 6 4 4 4 3 3 5 3 2 1 1 4 6 5 4 3 3 3 2 3 8 16 19 19 21 25 26 26 26 27 27 26 25 24 23 22 21 20 19 18 16 15 14 13 12 10 9 10 11 11 10 10 9 9 9 9 9 9 11 11 10 9 8 7 6 6 6 6 6 6 6 7 8 9 10 11 11 12 12 13 13 13 13 13 13 13 13 13 14 14 14 14 15 15
8 7 8 8 5 5 5 3 2 4 1 2 1 1 2 3 4 5 3 1 1 1 2 5 13 18 20 25 28 27 27 28 28 28 27 26 25 23 22 21 20 19 18 16 15 14 12 12 10 9 10 11 11 11 10 10 10 10 10 10 10 11 9 8 7 6 6 5 5 5 5 5 6 8 9 10 11 11 12 12 13 13 13 14 13 13 13 13 13 13 13 14 13 14 14 14 15
7 4 4 5 5 4 4 3 3 2 2 3 1 2 4 4 1 2 2 2 2 1 3 5 10 16 21 27 29 28 29 29 29 29 28 26 25 24 23 22 20 19 18 16 15 14 13 12 11 10 10 12 12 11 11 10 11 11 11 11 10 9 7 6 5 4 4 4 4 5 6 7 8 9 10 11 12 12 13 13 13 13 13 13 13 13 14 14 14 14 14 14 14 15 15 15 16
3 1 1 4 3 2 1 0 1 2 1 2 3 3 3 2 1 1 1 2 2 2 3 6 9 15 22 27 29 30 31 31 31 31 29 28 26 25 24 23 21 20 18 17 15 15 14 13 13 11 11 12 12 12 12 12 12 12 11 10 9 7 5 4 3 3 3 3 4 5 6 7 8 8 9 10 11 11 12 12 12 13 13 13 13 14 14 14 15 15 15 16 16 16 17 17 18
3 3 5 2 1 2 3 1 3 2 4 3 4 4 2 1 1 2 1 2 4 4 4 6 9 15 22 27 31 34 34 34 33 32 31 29 28 26 25 24 22 21 19 18 17 16 15 14 14 13 13 13 14 14 13 13 12 11 10 9 7 5 4 3 2 1 2 3 4 4 5 6 7 8 9 10 11 11 12 12 12 13 13 14 14 15 15 16 17 17 18 18 18 19 19 20 20
4 5 5 2 1 1 1 2 2 2 5 3 4 7 6 5 3 2 3 5 7 6 6 7 9 14 21 27 33 36 36 35 35 33 32 30 29 28 27 25 23 21 20 19 18 17 16 15 15 14 14 15 15 15 14 13 12 10 9 8 7 5 4 3 2 1 3 4 5 6 7 9 10 10 11 11 12 12 12 13 13 13 13 14 14 15 15 16 17 18 19 20 20 21 22 22 23
0 2 2 2 2 3 3 3 2 3 5 3 4 5 6 7 5 5 7 10 9 9 8 8 12 17 21 26 34 37 37 37 36 35 34 32 31 30 28 26 24 23 22 21 20 19 18 17 16 16 15 16 16 16 15 14 12 11 9 8 7 6 4 2 1 2 4 6 7 9 10 11 11 12 12 12 12 12 12 12 12 13 13 14 15 15 16 17 18 19 20 21 23 23 24 25 25
1 1 2 1 2 3 3 2 2 3 4 3 2 3 4 6 7 10 13 12 10 11 9 10 15 20 24 29 37 41 41 40 39 38 37 35 33 31 28 27 25 24 24 23 22 21 20 20 19 18 18 17 17 17 16 14 13 11 10 9 8 6 3 1 1 3 6 7 9 10 11 12 12 13 13 13 13 13 13 13 13 14 15 16 17 18 19 20 21 22 23 24 25 26 26 27 27
5 6 6 4 1 0 1 1 1 1 4 4 4 5 3 4 4 9 12 9 10 12 11 11 16 21 27 35 43 45 44 44 42 40 39 36 34 32 29 28 26 26 26 25 24 23 22 22 21 21 20 19 19 18 16 15 14 12 11 9 7 5 2 1 3 5 7 9 11 12 13 13 14 14 15 15 15 15 15 15 16 16 17 18 19 20 21 22 23 24 25 25 26 27 27 28 28
5 6 8 8 5 3 4 5 2 1 3 2 2 5 2 3 1 2 4 2 6 11 11 11 15 24 32 38 43 45 46 45 43 41 40 37 35 33 31 30 29 29 28 27 25 25 24 24 23 22 21 20 20 18 17 15 14 13 11 9 7 5 3 3 4 7 9 11 13 14 15 15 16 16 17 17 17 18 18 18 18 19 19 20 21 21 22 23 24 25 26 26 27 28 28 29 30
Wind_Direction
327 327 295 272 240 229 140 250 154 83 345 100 83 115 103 15 324 293 132 142 162 85 281 292 239 200 230 309 330 324 297 310 355 2 44 22 340 358 7 354 9 11 181 188 192 193 196 197 192 186 182 184 184 187 191 198 208 208 212 222 223 234 270 308 39 127 136 132 120 116 114 109 104 103 107 112 116 116 118 125 114 94 72 57 63 67 70 67 61 62 61 60 59 58 57 55 49
2 15 18 140 122 180 174 280 222 124 150 114 92 53 75 214 246 67 73 59 58 38 289 275 232 219 259 293 292 279 255 270 331 7 34 3 357 9 11 18 16 20 169 185 193 195 196 196 194 191 187 187 187 189 194 202 212 213 216 226 226 235 268 300 351 141 144 135 127 123 117 111 105 106 111 112 120 122 122 128 120 108 90 80 80 72 73 72 62 57 56 53 48 42 34 29 25
35 42 35 115 82 88 154 268 199 150 148 111 107 96 68 156 89 53 48 28 13 314 285 233 231 235 255 262 276 294 56 46 5 30 29 11 15 6 13 33 39 52 154 182 192 197 197 196 196 196 192 191 191 193 198 206 215 218 220 225 223 228 247 265 225 170 160 146 136 128 117 109 99 98 102 103 117 128 129 134 135 137 140 110 88 79 83 78 64 58 53 39 21 7 353 344 338
33 22 14 143 141 87 170 262 135 174 140 114 115 123 205 90 71 49 27 354 320 275 144 243 226 233 267 310 20 25 49 51 35 36 24 8 11 6 18 46 63 72 139 175 190 198 200 197 197 201 198 196 196 198 202 209 218 222 224 225 224 228 235 237 204 182 174 159 142 131 119 103 90 83 78 71 97 132 140 145 160 165 165 140 94 74 80 81 63 46 23 1 343 331 320 313 310
26 16 13 183 203 49 345 104 119 231 106 115 117 121 170 72 53 25 4 6 38 117 81 296 274 63 287 357 348 358 33 37 26 28 24 2 5 11 24 56 78 89 121 166 186 198 204 201 199 203 204 201 200 202 207 216 226 229 230 226 222 228 232 226 204 189 181 168 151 141 127 105 89 79 64 45 60 126 143 151 179 180 173 160 101 68 71 76 42 356 338 325 317 311 305 301 300
20 22 44 108 128 55 198 156 162 128 66 34 105 110 100 50 9 348 346 46 69 69 30 332 335 335 235 33 5 21 19 13 15 14 3 348 355 10 29 62 82 92 117 159 181 196 205 204 204 205 205 203 202 206 212 219 229 237 235 227 221 226 232 219 199 192 186 178 165 154 135 110 91 73 56 44 51 90 131 153 187 197 194 189 126 74 53 14 338 327 318 313 311 305 300 298 297
14 18 46 101 87 10 225 132 131 117 66 354 60 86 57 40 349 334 346 88 74 53 26 8 340 316 119 16 27 48 31 32 24 10 358 334 347 8 41 69 82 87 111 147 172 193 201 203 210 210 206 204 204 209 215 217 225 236 232 222 219 223 228 213 198 196 194 188 175 164 144 120 97 79 58 46 56 82 131 162 189 208 212 207 205 296 340 326 322 323 318 319 318 310 305 303 302
11 22 17 141 74 3 180 115 100 81 81 339 353 7 6 6 325 326 45 51 48 38 6 10 347 347 58 9 38 61 48 49 36 29 25 8 350 14 72 83 98 91 101 136 167 187 194 200 210 215 213 209 205 207 212 216 220 228 226 220 219 221 224 210 199 202 202 194 180 171 169 164 127 101 67 37 33 175 163 172 187 209 224 221 240 281 316 319 319 324 325 330 330 323 321 318 318
11 41 103 211 135 105 121 134 104 66 97 111 296 307 326 336 322 310 34 75 61 7 345 3 346 8 41 31 78 61 50 50 40 37 33 31 17 11 119 122 125 110 111 135 170 186 193 198 208 215 219 216 209 207 210 216 220 223 222 220 219 219 222 212 201 207 210 200 185 182 200 193 152 132 83 14 247 231 198 182 183 197 221 240 261 283 302 316 319 322 327 333 336 334 334 334 336
11 34 83 152 180 160 154 157 122 120 90 50 305 322 292 281 262 293 317 74 49 355 358 10 45 16 8 85 83 67 51 41 34 33 28 30 21 354 169 162 147 136 134 144 170 193 200 200 208 213 219 222 218 210 208 215 221 226 225 221 220 220 221 215 204 208 211 203 194 194 212 209 194 266 313 256 246 243 226 197 192 197 210 239 262 280 292 305 312 317 325 331 335 337 338 343 358
9 34 53 190 200 192 172 159 135 101 80 84 90 9 317 238 219 213 302 7 29 16 39 24 126 2 334 98 95 102 50 12 7 12 8 12 12 360 323 207 175 157 150 150 162 186 200 202 208 213 218 222 224 218 209 213 218 224 230 226 225 226 223 217 211 211 209 208 207 202 210 219 224 254 253 266 252 241 230 211 208 216 226 244 263 277 285 294 303 315 321 326 330 334 337 348 23
345 33 305 214 188 193 98 141 129 87 106 119 100 50 15 72 229 109 23 32 21 26 71 27 19 347 304 109 119 144 358 344 352 355 345 336 347 346 315 259 222 189 168 161 155 172 193 200 204 211 217 219 224 223 214 213 216 220 227 228 230 234 229 219 216 219 216 212 213 208 205 213 221 236 244 271 258 239 226 216 213 224 236 252 267 278 283 288 300 314 318 321 324 326 338 2 43
82 129 264 180 32 50 101 142 124 107 140 118 85 30 8 54 293 50 70 66 9 360 48 6 350 336 297 336 124 133 326 339 345 340 334 310 296 285 248 239 240 228 208 188 177 171 184 195 201 207 212 217 220 224 221 217 216 217 223 227 228 234 234 224 220 224 227 223 222 216 204 209 229 245 253 266 262 251 241 226 221 232 242 261 271 276 281 288 301 313 318 318 316 319 337 15 63
95 135 343 119 59 147 149 165 154 187 153 113 81 11 12 107 3 72 135 59 78 2 350 339 329 265 292 310 139 349 324 331 330 323 322 291 252 236 219 215 221 228 230 216 207 196 192 194 198 204 207 212 217 223 225 222 219 214 217 223 224 230 235 229 224 224 225 226 229 227 213 213 231 245 249 252 256 261 259 244 237 244 251 265 272 276 283 294 306 314 316 312 308 315 333 353 97
96 116 69 122 145 166 194 252 155 203 147 115 90 27 81 96 22 77 360 352 24 347 342 340 324 289 352 352 306 321 315 318 318 311 305 275 239 222 200 204 210 217 225 222 221 214 215 212 204 207 205 207 213 219 222 225 224 215 213 217 220 227 235 235 231 226 222 222 225 230 225 223 232 241 244 251 255 255 258 254 248 254 262 266 272 279 288 298 306 314 312 306 305 309 312 270 190
79 106 127 140 155 194 187 157 163 198 135 122 82 53 118 54 13 8 327 320 312 326 338 334 313 306 338 319 295 307 309 312 312 307 295 263 240 224 200 203 208 212 220 220 223 221 223 225 222 222 215 211 212 216 219 223 227 222 216 216 217 221 229 234 235 231 224 224 223 224 226 227 236 242 243 250 259 256 253 255 258 266 272 272 275 280 290 297 305 317 309 302 306 303 293 248 220
52 97 225 150 170 214 175 177 174 139 116 129 85 39 360 26 354 331 323 307 301 308 321 321 300 289 288 290 299 308 309 311 313 312 297 256 237 229 218 215 213 214 217 219 224 226 228 228 229 231 231 228 219 219 220 219 225 226 220 220 222 220 223 227 235 235 227 230 231 228 230 233 240 245 245 245 255 261 255 252 260 270 277 281 284 286 291 296 306 319 306 298 308 301 284 246 227
13 199 253 163 162 125 162 177 160 99 98 119 51 7 353 10 330 330 322 298 306 306 324 4 332 274 283 309 313 313 312 313 318 314 297 252 231 229 230 231 233 230 223 222 224 227 231 233 235 237 238 240 234 228 227 223 225 227 221 224 228 225 226 227 233 234 226 228 234 234 235 238 241 245 248 248 251 257 254 255 264 274 282 290 295 294 297 300 307 315 303 294 304 304 286 245 234
35 144 287 104 125 90 150 162 152 168 78 74 360 356 317 315 321 331 320 308 316 313 9 81 105 120 303 310 312 317 328 336 350 346 329 225 211 217 229 240 247 246 241 234 229 229 231 234 238 242 245 246 246 239 235 230 228 226 214 217 229 230 229 228 230 234 231 227 229 230 230 234 237 242 248 249 249 251 258 268 274 276 284 295 302 303 307 309 309 311 303 296 297 300 294 257 238
66 234 282 82 93 157 195 204 186 208 322 349 270 305 281 267 288 304 315 304 300 322 31 57 106 318 302 306 318 344 33 50 61 77 90 101 109 125 192 232 244 245 246 241 235 231 228 228 229 232 236 239 241 239 238 233 230 226 211 211 223 229 230 230 228 231 235 232 232 231 228 230 231 238 245 246 247 250 260 269 272 276 285 295 298 302 310 314 313 312 306 307 314 304 299 281 250
159 248 8 81 124 205 180 202 210 218 252 259 238 273 252 183 292 265 267 290 284 18 21 330 298 299 299 307 352 53 68 71 82 93 101 99 75 32 346 297 258 239 237 236 235 232 229 227 225 225 226 228 230 231 231 230 230 222 212 212 217 224 227 230 228 228 236 239 242 243 238 236 235 238 243 244 244 249 257 263 267 274 283 286 286 295 307 312 315 314 308 312 322 316 304 295 274
164 158 44 103 167 249 106 177 212 215 230 224 218 248 262 262 275 218 226 280 313 319 313 306 296 288 288 298 313 122 56 7 68 94 104 63 352 336 321 308 292 269 250 239 234 232 232 229 227 226 225 226 226 225 223 220 222 208 200 214 220 222 222 227 230 229 236 241 246 250 246 244 246 247 248 248 246 248 254 260 266 270 273 270 271 286 301 305 307 307 304 306 312 316 312 300 290
228 143 121 177 205 261 318 245 263 270 240 226 238 272 277 264 246 170 198 264 284 289 295 300 277 255 234 205 231 262 279 281 315 341 352 349 340 333 326 320 309 295 277 261 250 242 238 233 230 227 226 227 225 224 220 212 210 198 187 205 218 221 222 229 228 225 233 240 241 243 245 249 252 254 254 253 252 252 251 254 263 269 267 259 262 283 298 298 297 295 298 302 304 310 312 302 295
275 181 132 223 233 252 284 282 286 286 270 271 282 281 262 259 258 142 148 241 252 261 273 193 201 201 195 195 239 253 251 268 303 333 340 337 337 338 336 334 328 319 305 288 274 260 249 243 236 230 227 227 225 224 221 209 197 189 179 188 207 212 217 225 224 229 241 242 235 236 243 248 248 250 249 251 258 258 254 251 256 273 276 258 263 283 295 294 292 291 295 300 302 305 307 300 297
236 267 112 251 257 266 288 287 288 287 282 284 279 269 266 273 239 124 96 195 199 182 153 154 170 178 199 210 218 205 131 56 23 2 341 335 335 338 339 339 336 332 323 306 290 273 257 247 238 232 226 224 224 221 219 207 185 180 173 172 196 206 212 222 225 237 249 245 232 234 245 245 240 242 248 255 259 261 263 254 251 270 282 265 261 274 287 288 288 294 299 300 299 301 301 296 295
192 241 91 267 273 284 294 289 286 283 280 280 265 258 268 177 156 116 81 166 165 167 169 168 180 195 204 199 126 75 61 51 37 25 15 5 350 339 338 342 347 349 352 344 314 288 263 244 231 227 221 218 217 212 211 196 168 165 167 176 199 200 205 215 219 229 237 237 233 237 249 246 236 237 241 250 253 254 260 255 255 263 264 255 254 269 281 288 299 311 316 310 302 300 298 294 294
131 181 285 273 281 288 288 280 280 279 270 263 252 255 118 157 173 108 109 174 161 162 181 184 189 209 230 40 47 48 37 24 18 19 15 3 354 351 356 6 12 22 27 27 22 12 341 270 229 221 214 208 202 193 192 171 148 160 165 179 199 193 200 212 214 223 226 229 231 237 251 248 235 231 228 238 246 242 242 246 253 246 234 247 260 268 275 287 308 318 316 307 303 299 296 294 295
126 304 284 264 273 280 275 273 279 277 268 246 222 191 123 177 196 63 121 177 166 172 189 188 191 203 190 45 35 28 12 4 1 358 349 345 355 9 22 30 29 37 41 39 41 42 39 27 249 201 189 186 176 166 170 161 155 174 176 182 197 194 199 205 205 217 225 230 232 236 247 247 234 223 225 243 245 243 252 250 245 235 238 257 261 259 266 276 286 293 294 293 296 296 295 295 294
176 328 297 274 268 266 248 282 290 257 274 141 164 169 149 160 133 77 159 179 172 195 204 190 190 183 146 107 39 13 353 352 346 341 353 8 20 24 31 38 35 39 46 47 50 53 57 61 86 139 165 171 166 160 161 162 164 179 184 180 188 195 202 200 200 220 233 239 241 242 248 247 237 226 231 250 245 253 266 246 230 236 247 247 236 249 265 275 283 286 285 285 293 299 301 302 300
234 138 311 298 283 257 123 68 313 265 230 153 170 238 163 136 113 20 228 191 179 200 205 189 176 165 150 133 72 15 358 352 354 6 21 29 32 32 35 41 40 41 48 54 62 70 80 94 111 132 160 162 158 159 158 162 168 178 187 181 177 192 208 211 214 232 240 238 240 241 244 242 239 233 234 243 242 258 263 235 228 235 230 210 216 258 275 284 288 287 289 292 298 304 309 312 311
289 245 242 288 290 216 123 54 304 270 204 164 211 274 188 142 125 324 233 195 190 196 187 181 169 163 162 140 105 18 34 31 41 47 47 44 36 34 39 47 50 49 52 60 70 83 99 116 124 132 154 159 157 162 165 169 172 177 186 188 190 197 206 208 210 222 230 231 236 235 231 232 235 232 234 239 235 242 253 253 253 243 227 263 282 286 293 294 292 293 297 301 305 310 314 315 314
16 267 237 191 256 238 124 74 338 291 54 146 221 262 162 149 143 14 192 185 187 192 180 175 174 170 169 161 148 101 83 77 81 79 68 60 46 39 47 56 63 64 65 69 78 89 105 124 135 141 149 154 157 167 175 174 172 177 183 185 193 199 196 195 193 193 199 203 239 234 225 227 235 231 228 236 232 231 244 249 249 256 280 301 296 295 295 295 299 306 310 310 312 314 313 313 313
172 240 258 219 228 264 269 93 44 339 56 154 233 272 167 141 145 143 163 174 180 177 171 169 174 170 166 160 141 121 111 110 112 107 91 81 68 53 60 69 75 78 81 86 94 102 109 121 138 148 148 146 150 160 169 168 166 172 179 180 182 184 184 176 166 161 151 117 107 111 133 183 239 235 218 221 231 226 232 238 242 268 290 287 286 289 290 298 308 314 316 313 311 311 309 311 311
195 196 253 252 232 258 263 138 93 4 253 208 217 266 268 136 137 144 157 169 174 164 159 159 166 168 162 151 140 138 136 137 138 127 108 94 85 76 78 84 86 89 94 96 101 106 110 115 124 134 140 144 151 158 160 162 166 170 169 169 170 174 181 171 158 175 200 200 182 136 108 98 100 167 175 182 203 208 224 250 265 283 291 285 288 295 297 303 310 310 309 306 304 305 305 305 305
220 192 228 245 226 237 251 234 109 53 249 234 212 251 263 169 142 135 153 166 176 162 153 153 159 162 158 151 148 148 148 152 149 131 112 99 95 94 91 94 98 98 102 104 107 111 115 116 116 117 123 132 141 150 155 158 166 171 166 170 178 179 182 182 180 192 204 216 225 215 200 234 232 194 130 138 183 220 247 266 276 283 288 291 294 295 294 294 296 298 300 302 303 303 303 302 301
229 194 227 248 243 244 240 203 77 41 255 251 247 256 266 235 153 135 142 153 162 158 153 160 163 163 161 156 156 154 153 156 151 135 118 115 118 117 108 105 107 107 110 113 114 116 117 116 115 113 115 119 123 128 138 146 156 162 162 172 180 173 173 183 184 185 185 200 222 224 234 239 229 227 236 246 255 259 261 260 263 270 276 281 283 282 283 284 288 293 296 298 300 300 299 298 298
151 190 234 243 251 260 211 123 95 74 260 255 250 260 268 259 152 126 142 152 160 168 171 172 167 165 163 162 161 159 161 159 150 141 136 135 133 129 125 118 115 115 115 116 118 118 115 116 120 120 118 120 125 128 132 139 144 151 161 171 172 160 162 175 174 173 173 177 176 165 180 177 174 202 219 231 240 246 251 255 260 265 269 273 278 281 285 290 293 296 296 296 296 296 296 298 300
201 230 244 244 246 256 235 118 103 153 235 250 210 256 263 248 129 119 158 177 178 181 186 179 172 168 164 165 167 165 163 158 148 143 142 141 137 133 133 128 123 123 120 119 123 122 120 121 120 118 116 117 122 130 136 144 147 156 166 164 154 139 134 144 143 130 117 113 110 109 112 101 90 87 84 85 280 276 273 276 278 280 285 289 296 300 303 303 301 299 298 299 300 301 303 306 310
219 229 244 253 246 256 247 124 109 168 221 236 138 261 266 215 114 120 163 185 177 174 195 185 174 167 167 171 171 167 162 153 148 147 142 136 133 132 134 134 132 130 128 126 126 124 124 124 120 115 115 114 113 119 124 126 126 127 126 121 119 116 114 113 109 100 90 90 91 87 85 77 68 62 60 52 41 31 21 7 352 340 327 321 319 315 310 306 305 307 311 318 320 319 319 318 320
221 218 233 245 221 220 247 156 129 164 233 288 296 276 269 180 129 130 133 149 139 133 176 183 181 178 179 180 175 169 164 158 154 149 141 135 132 131 132 132 132 130 128 128 126 125 124 121 118 117 115 112 108 107 105 102 101 102 103 105 108 108 105 102 98 94 91 88 87 83 79 73 66 63 61 56 54 51 46 42 36 26 13 3 352 338 334 335 341 344 347 353 353 349 347 343 341
220 215 228 243 227 221 241 119 126 193 205 234 256 274 263 193 184 178 135 150 157 152 173 180 187 189 186 182 179 174 168 161 154 148 142 137 134 132 131 129 127 126 125 124 124 122 120 116 114 112 108 103 100 97 94 92 92 94 97 101 103 100 97 97 97 95 94 90 86 81 75 70 65 61 59 54 52 50 47 46 44 40 37 34 29 23 22 20 19 17 16 16 15 16 15 9 4
227 216 223 239 244 228 209 142 201 243 221 184 221 259 238 157 197 187 149 177 178 174 196 194 191 190 187 184 181 177 168 160 153 148 143 138 136 133 130 127 125 124 123 122 120 118 114 112 110 107 104 100 97 94 91 88 89 90 92 95 95 97 100 101 97 93 92 88 83 79 75 71 65 61 58 53 48 45 43 42 40 38 35 34 34 32 30 29 26 24 24 23 21 22 22 19 17
241 222 220 228 238 220 185 179 201 246 255 128 232 261 245 191 197 161 160 196 186 186 210 207 200 195 192 191 184 175 166 160 154 148 144 140 137 133 130 128 126 124 121 119 116 114 111 109 107 106 105 103 100 97 94 91 90 91 92 96 101 106 111 108 102 96 92 87 83 82 80 75 69 63 58 55 51 46 43 41 38 35 33 32 32 29 27 26 24 21 20 19 19 18 15 14 15
225 47 198 198 203 202 194 194 208 254 328 150 201 270 276 263 217 128 156 199 200 200 212 212 207 199 196 194 185 175 168 161 154 149 146 142 139 135 132 130 127 124 121 118 116 114 113 111 111 111 109 108 105 102 100 96 94 96 99 106 114 116 118 115 109 101 94 92 93 90 85 79 73 66 59 55 51 46 41 38 34 31 29 27 26 23 23 24 21 19 17 13 12 11 10 11 9
287 57 76 130 159 184 183 195 215 265 309 234 198 158 252 257 204 126 158 217 233 208 201 208 202 195 195 192 184 176 169 162 155 151 147 143 140 137 134 132 129 126 123 121 120 118 118 118 117 118 116 113 111 108 108 109 107 110 114 119 126 126 124 119 113 108 104 103 102 95 89 83 76 69 62 55 48 43 37 32 28 22 20 18 17 16 17 16 13 12 11 9 9 7 6 7 5
139 127 97 92 87 92 134 199 191 145 243 245 196 169 225 257 195 177 175 227 239 203 192 201 192 189 193 190 184 178 171 163 157 152 148 145 143 140 138 136 133 130 128 126 126 126 127 127 126 127 123 118 116 118 122 126 127 132 134 134 139 134 126 120 117 114 110 107 102 95 88 80 74 66 59 50 41 36 29 23 19 14 12 10 8 8 6 4 4 4 4 5 4 2 1 1 0
143 143 107 97 89 88 101 162 137 210 238 241 173 175 229 257 208 205 198 198 190 166 177 186 181 188 193 190 186 180 172 165 159 154 151 148 147 145 144 141 138 137 136 134 134 135 134 134 134 133 129 125 127 131 139 145 147 151 147 143 140 132 125 123 123 118 111 108 101 92 83 74 67 57 49 39 28 24 18 12 8 5 3 1 358 358 356 356 357 357 357 357 355 356 356 355 354
158 155 135 129 120 133 152 137 182 242 233 156 60 135 226 231 216 210 202 166 152 165 174 177 180 188 190 189 188 182 174 168 162 158 155 153 152 151 149 146 146 145 145 145 144 143 142 140 143 147 143 141 143 147 154 159 159 156 148 143 137 129 127 128 126 120 112 104 92 82 73 63 53 43 34 25 17 12 8 3 359 356 353 352 351 352 352 352 351 351 350 349 349 349 349 348 348
205 165 163 179 170 171 201 183 197 242 232 98 63 171 220 234 248 254 221 189 191 182 160 173 180 183 184 188 188 183 178 172 165 162 161 160 159 157 155 154 154 154 153 153 152 151 152 151 156 165 160 156 158 158 161 162 159 151 144 140 136 131 131 131 125 118 111 97 83 72 60 50 38 27 19 12 7 3 360 355 351 350 348 348 349 349 349 348 346 345 344 342 342 341 340 340 340
195 177 178 191 170 178 206 185 225 263 210 94 32 247 224 235 255 257 231 128 90 114 127 173 178 177 182 187 189 185 181 175 170 168 167 166 165 163 162 162 163 162 161 161 161 160 164 164 167 177 174 165 163 163 164 163 158 150 146 143 138 137 137 134 127 118 106 89 73 53 35 29 16 8 5 360 357 354 350 347 345 344 344 343 344 343 343 342 341 340 339 338 337 336 335 334 332
190 177 187 202 184 197 206 189 222 246 120 124 142 231 200 178 175 321 338 10 12 189 185 179 174 176 182 187 189 188 184 180 175 173 172 172 171 169 169 171 170 170 170 170 170 170 174 174 174 183 182 171 168 169 169 169 165 156 152 149 143 142 139 133 124 107 86 59 37 19 8 5 358 355 353 348 345 342 338 338 338 338 338 338 338 338 337 336 335 335 334 334 333 332 331 329 328
182 54 214 229 210 177 142 136 151 86 69 186 178 235 226 174 86 45 330 285 202 194 188 175 174 180 185 189 191 191 189 185 180 178 177 176 176 176 176 177 177 176 176 177 179 180 182 182 181 186 187 179 176 177 177 176 171 163 157 153 148 143 136 126 110 78 54 27 10 359 352 350 347 345 342 338 335 332 332 332 332 332 333 332 332 332 331 331 330 330 330 329 328 328 327 326 325
151 181 198 220 348 99 126 131 71 81 263 230 172 224 231 167 225 168 156 231 192 179 177 173 174 180 187 193 196 195 192 188 185 183 182 181 181 182 182 183 182 182 182 184 186 187 188 191 191 190 191 187 184 184 183 180 175 168 162 158 155 151 143 130 114 75 39 19 2 354 351 348 345 343 339 336 334 332 330 328 327 326 325 324 324 325 325 325 326 326 326 326 326 326 325 325 324
149 190 186 143 12 360 168 202 115 158 249 253 182 217 207 183 209 156 165 216 207 187 173 170 176 184 193 199 201 199 195 192 190 187 186 186 186 186 187 187 186 186 189 191 193 192 192 195 197 197 198 195 192 190 187 183 178 174 170 167 166 162 158 154 129 66 23 11 356 349 346 343 341 340 337 336 334 331 329 326 325 324 324 323 323 321 321 321 321 322 323 322 323 323 323 323 323
236 204 162 122 211 201 173 193 183 188 236 252 194 212 218 203 192 161 189 213 202 180 171 176 189 193 198 203 203 201 198 196 193 190 190 191 190 190 190 190 190 191 194 196 196 196 195 196 198 199 201 199 197 194 189 185 182 179 178 176 175 172 167 162 84 15 1 351 342 338 337 335 334 334 334 334 332 330 327 325 324 323 323 322 321 321 321 321 321 322 323 323 323 323 323 324 323
16 154 161 294 265 212 170 172 197 205 226 252 218 204 212 204 184 172 190 205 188 168 174 193 200 200 201 203 204 203 201 198 196 194 194 194 193 194 193 193 194 196 198 199 198 199 199 199 200 200 201 200 199 196 192 189 185 183 184 182 180 181 178 184 333 343 342 337 334 333 332 331 331 331 332 332 330 329 326 324 323 321 320 320 320 320 320 321 322 322 323 323 323 323 323 323 323
166 177 179 186 173 21 248 191 119 231 228 233 254 260 211 162 170 176 182 193 176 168 181 198 200 203 205 206 205 203 201 200 199 197 197 196 196 196 195 196 198 200 202 201 200 201 202 202 203 202 203 204 201 197 194 192 190 187 188 188 188 193 205 265 322 333 336 335 334 333 332 330 331 330 329 328 327 326 325 323 322 321 320 320 320 320 320 321 321 321 321 321 321 321 321 321 321
185 191 184 181 166 149 202 209 166 294 263 224 246 277 240 136 152 186 156 150 173 179 189 193 198 205 209 210 207 205 204 202 201 200 199 199 198 198 198 199 201 203 204 203 202 204 205 205 205 206 206 206 204 201 197 195 195 194 194 196 201 211 236 289 325 334 336 336 334 333 331 330 329 328 326 326 325 323 322 321 321 320 319 319 319 319 318 318 318 319 319 319 319 320 320 320 319